Fox Island, WA

4:49 PM PDT on August 28, 2016 (GMT -0700)
Tacoma Narrows

Weather History for KTIW - November, 2013

Change the Weather History Date:

Monday, November 25, 2013

  Actual Average Record
Temperature  
Mean Temperature 42 °F -  
Max Temperature 48 °F 47 °F 55 °F (2014)
Min Temperature 35 °F 39 °F 28 °F (2010)
Degree Days  
Heating Degree Days 24    
Moisture  
Dew Point 36 °F    
Average Humidity 88    
Maximum Humidity 100    
Minimum Humidity 58    
Precipitation  
Precipitation 0.00 in - - ()
Sea Level Pressure  
Sea Level Pressure 30.29 in    
Wind  
Wind Speed 0 mph (South)    
Max Wind Speed 4 mph    
Max Gust Speed -    
Visibility 4 miles    
Events Fog    
Averages and records for this station are not official NWS values.
T = Trace of Precipitation, MM = Missing Value Source: NWS Daily Summary

Daily Weather History Graph

Daily Weather History Graph

Search for Another Location

Airport or City:

Trip Planner

Search our weather history database for the weather conditions in past years. The results will help you decide how hot, cold, wet, or windy it might be!

Date:

Astronomy

Nov. 25, 2013 Rise Set
Actual Time 7:29 AM PST 4:25 PM PST
Civil Twilight 6:54 AM PST 4:59 PM PST
Nautical Twilight 6:16 AM PST 5:37 PM PST
Astronomical Twilight 5:40 AM PST 6:14 PM PST
Moon No Moon Rise 12:32 PM PST (11/25)
Length of Visible Light 10h 05m
Length of Day
8h 56m
Waning Gibbous, 50% of the Moon is Illuminated
Nov 25
Waning Gibbous
Dec 2
New
Dec 9
First Quarter
Dec 17
Full
Dec 25
Last Quarter

Hourly Weather History & Observations

Time (PST) Temp. Windchill Dew Point Humidity Pressure Visibility Wind Dir Wind Speed Gust Speed Precip Events Conditions
12:53 AM 39.9 °F - 37.9 °F 93% 30.27 in 0.2 mi Calm Calm - N/A Fog Fog
1:53 AM 39.9 °F - 37.9 °F 93% 30.28 in 0.2 mi Calm Calm - N/A Fog Fog
2:53 AM 39.9 °F - 37.9 °F 93% 30.29 in 0.2 mi Calm Calm - N/A Fog Fog
3:53 AM 37.9 °F - 37.0 °F 97% 30.29 in 0.2 mi Calm Calm - N/A Fog Fog
4:39 AM 35.6 °F - 35.6 °F 100% 30.28 in 0.8 mi Calm Calm - N/A   Mist
4:46 AM 35.6 °F - 33.8 °F 93% 30.28 in 0.8 mi Calm Calm - N/A   Mist
4:53 AM 36.0 °F - 33.1 °F 89% 30.29 in 0.8 mi Calm Calm - N/A   Mist
4:58 AM 35.6 °F - 33.8 °F 93% 30.28 in 0.2 mi Calm Calm - N/A Fog Fog
5:53 AM 36.0 °F - 35.1 °F 97% 30.30 in 0.2 mi Calm Calm - N/A Fog Fog
6:53 AM 36.0 °F - 33.1 °F 89% 30.30 in 1.0 mi Calm Calm - N/A   Mist
7:00 AM 35.6 °F 32.8 °F 33.8 °F 93% 30.28 in 0.5 mi South 3.5 mph - N/A Fog Fog
7:10 AM 35.6 °F 32.8 °F 33.8 °F 93% 30.28 in 2.0 mi SSW 3.5 mph - N/A   Mostly Cloudy
7:12 AM 35.6 °F - 33.8 °F 93% 30.29 in 3.0 mi Calm Calm - N/A   Scattered Clouds
7:38 AM 35.6 °F - 33.8 °F 93% 30.29 in 1.2 mi Calm Calm - N/A   Clear
7:44 AM 35.6 °F - 33.8 °F 93% 30.29 in 0.2 mi Calm Calm - N/A Fog Fog
7:53 AM 36.0 °F - 34.0 °F 93% 30.31 in 10.0 mi Calm Calm - N/A   Clear
8:53 AM 37.9 °F - 36.0 °F 93% 30.32 in 10.0 mi Calm Calm - N/A   Clear
9:53 AM 41.0 °F - 36.0 °F 82% 30.33 in 10.0 mi Calm Calm - N/A   Clear
10:53 AM 43.0 °F 41.3 °F 36.0 °F 76% 30.33 in 10.0 mi South 3.5 mph - N/A   Clear
11:53 AM 46.0 °F - 35.1 °F 66% 30.32 in 10.0 mi Calm Calm - N/A   Clear
12:53 PM 48.0 °F - 35.1 °F 61% 30.31 in 10.0 mi Calm Calm - N/A   Clear
1:53 PM 46.9 °F - 36.0 °F 66% 30.30 in 10.0 mi Calm Calm - N/A   Clear
2:53 PM 48.0 °F - 34.0 °F 58% 30.30 in 10.0 mi Calm Calm - N/A   Clear
3:53 PM 46.0 °F - 36.0 °F 68% 30.30 in 10.0 mi Calm Calm - N/A   Clear
4:53 PM 44.1 °F - 36.0 °F 73% 30.29 in 10.0 mi Calm Calm - N/A   Clear
5:53 PM 42.1 °F - 36.0 °F 79% 30.30 in 10.0 mi Calm Calm - N/A   Clear
6:53 PM 42.1 °F - 36.0 °F 79% 30.30 in 10.0 mi Calm Calm - N/A   Clear
7:53 PM 39.9 °F - 36.0 °F 86% 30.29 in 10.0 mi Calm Calm - N/A   Clear
8:53 PM 39.9 °F - 37.0 °F 89% 30.29 in 10.0 mi Calm Calm - N/A   Clear
9:08 PM 39.2 °F - 37.4 °F 93% 30.28 in 1.0 mi Calm Calm - N/A   Mist
9:15 PM 39.2 °F - 37.4 °F 93% 30.28 in 0.5 mi Calm Calm - N/A Fog Fog
9:18 PM 39.2 °F - 37.4 °F 93% 30.28 in 1.0 mi Calm Calm - N/A   Clear
9:23 PM 41.0 °F - 37.4 °F 87% 30.28 in 3.0 mi Calm Calm - N/A   Clear
9:29 PM 39.2 °F - 37.4 °F 93% 30.28 in 1.8 mi Calm Calm - N/A   Clear
9:40 PM 39.2 °F - 37.4 °F 93% 30.28 in 0.5 mi Calm Calm - N/A Fog Fog
9:53 PM 39.9 °F - 37.0 °F 89% 30.29 in 1.2 mi Calm Calm - N/A   Clear
9:57 PM 41.0 °F - 37.4 °F 87% 30.27 in 3.0 mi Calm Calm - N/A   Clear
10:16 PM 39.2 °F - 37.4 °F 93% 30.28 in 1.2 mi Calm Calm - N/A   Clear
10:18 PM 39.2 °F - 37.4 °F 93% 30.28 in 0.8 mi Calm Calm - N/A   Mist
10:30 PM 37.4 °F - 35.6 °F 93% 30.28 in 0.2 mi Calm Calm - N/A Fog Fog
10:49 PM 39.2 °F - 37.4 °F 93% 30.27 in 0.5 mi Calm Calm - N/A Fog Fog
10:53 PM 39.0 °F - 37.0 °F 93% 30.28 in 0.8 mi Calm Calm - N/A   Mist
11:03 PM 39.2 °F - 37.4 °F 93% 30.27 in 1.0 mi Calm Calm - N/A   Mist
11:11 PM 39.2 °F - 37.4 °F 93% 30.27 in 0.5 mi Calm Calm - N/A Fog Fog
11:21 PM 39.2 °F - 37.4 °F 93% 30.27 in 0.2 mi Calm Calm - N/A Fog Fog
11:53 PM 39.9 °F - 39.0 °F 97% 30.28 in 0.2 mi Calm Calm - N/A Fog Fog